Time,TemperatureF,DewpointF,PressureIn,WindDirection,WindDirectionDegrees,WindSpeedMPH,WindSpeedGustMPH,Humidity,HourlyPrecipIn,Conditions,Clouds,dailyrainin,SoftwareType,DateUTC
2013-01-15 00:03:00,19.0,16.0,-100.00,NE,45,7.0,14.0,86,-99.99,,,-99.99,,2013-01-15 05:03:00,
2013-01-15 00:12:00,19.0,16.0,-100.00,NE,40,7.0,11.0,86,-99.99,,,-99.99,,2013-01-15 05:12:00,
2013-01-15 00:22:00,19.0,15.0,-100.00,ENE,60,7.0,12.0,86,-99.99,,,-99.99,,2013-01-15 05:22:00,
2013-01-15 00:33:00,19.0,15.0,-100.00,NE,45,6.0,12.0,86,-99.99,,,-99.99,,2013-01-15 05:33:00,
2013-01-15 00:42:00,19.0,15.0,-100.00,NE,50,9.0,12.0,86,-99.99,,,-99.99,,2013-01-15 05:42:00,
2013-01-15 00:52:00,19.0,15.0,-100.00,NNE,25,9.0,13.0,86,-99.99,,,-99.99,,2013-01-15 05:52:00,
2013-01-15 01:02:00,19.0,15.0,-100.00,NE,45,7.0,12.0,86,-99.99,,,-99.99,,2013-01-15 06:02:00,
2013-01-15 01:12:00,19.0,15.0,-100.00,NE,55,7.0,12.0,86,-99.99,,,-99.99,,2013-01-15 06:12:00,
2013-01-15 01:22:00,19.0,15.0,-100.00,NE,45,6.0,11.0,86,-99.99,,,-99.99,,2013-01-15 06:22:00,
2013-01-15 01:33:00,19.0,15.0,-100.00,NE,45,5.0,9.0,87,-99.99,,,-99.99,,2013-01-15 06:33:00,
2013-01-15 01:43:00,19.0,15.0,-100.00,NE,40,6.0,7.0,87,-99.99,,,-99.99,,2013-01-15 06:43:00,
2013-01-15 01:52:00,19.0,16.0,-100.00,NE,45,6.0,10.0,88,-99.99,,,-99.99,,2013-01-15 06:52:00,
2013-01-15 02:02:00,19.0,16.0,-100.00,NE,50,6.0,10.0,88,-99.99,,,-99.99,,2013-01-15 07:02:00,
2013-01-15 02:12:00,19.0,16.0,-100.00,NE,45,6.0,10.0,88,-99.99,,,-99.99,,2013-01-15 07:12:00,
2013-01-15 02:22:00,19.0,16.0,-100.00,NE,45,6.0,9.0,88,-99.99,,,-99.99,,2013-01-15 07:22:00,
2013-01-15 02:33:00,19.0,16.0,-100.00,NE,40,6.0,10.0,89,-99.99,,,-99.99,,2013-01-15 07:33:00,
2013-01-15 02:42:00,19.0,16.0,-100.00,NNE,25,6.0,12.0,89,-99.99,,,-99.99,,2013-01-15 07:42:00,
2013-01-15 02:52:00,19.0,16.0,-100.00,NE,50,5.0,9.0,89,-99.99,,,-99.99,,2013-01-15 07:52:00,
2013-01-15 03:02:00,18.0,16.0,-100.00,NE,40,5.0,8.0,89,-99.99,,,-99.99,,2013-01-15 08:02:00,
2013-01-15 03:12:00,19.0,16.0,-100.00,NE,35,5.0,9.0,90,-99.99,,,-99.99,,2013-01-15 08:12:00,
2013-01-15 03:22:00,19.0,16.0,-100.00,NNE,30,5.0,7.0,90,-99.99,,,-99.99,,2013-01-15 08:22:00,
2013-01-15 03:33:00,19.0,17.0,-100.00,NNE,30,4.0,9.0,91,-99.99,,,-99.99,,2013-01-15 08:33:00,
2013-01-15 03:42:00,18.0,16.0,-100.00,NNE,25,4.0,6.0,91,-99.99,,,-99.99,,2013-01-15 08:42:00,
2013-01-15 03:52:00,19.0,17.0,-100.00,NNE,30,6.0,9.0,92,-99.99,,,-99.99,,2013-01-15 08:52:00,
2013-01-15 04:02:00,19.0,17.0,-100.00,NNE,25,6.0,11.0,92,-99.99,,,-99.99,,2013-01-15 09:02:00,
2013-01-15 04:12:00,19.0,17.0,-100.00,NNE,30,7.0,12.0,91,-99.99,,,-99.99,,2013-01-15 09:12:00,
2013-01-15 04:22:00,19.0,17.0,-100.00,NE,40,7.0,12.0,91,-99.99,,,-99.99,,2013-01-15 09:22:00,
2013-01-15 04:33:00,19.0,17.0,-100.00,NE,35,7.0,12.0,91,-99.99,,,-99.99,,2013-01-15 09:33:00,
2013-01-15 04:42:00,19.0,16.0,-100.00,NE,35,7.0,16.0,90,-99.99,,,-99.99,,2013-01-15 09:42:00,
2013-01-15 04:52:00,19.0,16.0,-100.00,NE,35,8.0,13.0,90,-99.99,,,-99.99,,2013-01-15 09:52:00,
2013-01-15 05:02:00,19.0,16.0,-100.00,NNE,25,9.0,14.0,90,-99.99,,,-99.99,,2013-01-15 10:02:00,
2013-01-15 05:12:00,19.0,16.0,-100.00,NE,45,11.0,15.0,90,-99.99,,,-99.99,,2013-01-15 10:12:00,
2013-01-15 05:22:00,19.0,16.0,-100.00,NE,35,10.0,17.0,89,-99.99,,,-99.99,,2013-01-15 10:22:00,
2013-01-15 05:32:00,18.0,16.0,-100.00,NE,35,9.0,15.0,89,-99.99,,,-99.99,,2013-01-15 10:32:00,
2013-01-15 05:42:00,19.0,16.0,-100.00,NE,40,8.0,16.0,89,-99.99,,,-99.99,,2013-01-15 10:42:00,
2013-01-15 05:52:00,19.0,16.0,-100.00,NNE,25,9.0,15.0,89,-99.99,,,-99.99,,2013-01-15 10:52:00,
2013-01-15 06:02:00,19.0,16.0,-100.00,NNE,25,7.0,14.0,89,-99.99,,,-99.99,,2013-01-15 11:02:00,
2013-01-15 06:12:00,18.0,16.0,-100.00,NE,45,7.0,14.0,89,-99.99,,,-99.99,,2013-01-15 11:12:00,
2013-01-15 06:22:00,18.0,16.0,-100.00,NE,35,7.0,11.0,89,-99.99,,,-99.99,,2013-01-15 11:22:00,
2013-01-15 06:33:00,18.0,16.0,-100.00,ENE,60,6.0,11.0,89,-99.99,,,-99.99,,2013-01-15 11:33:00,
2013-01-15 06:42:00,18.0,16.0,-100.00,NE,50,6.0,12.0,89,-99.99,,,-99.99,,2013-01-15 11:42:00,
2013-01-15 06:52:00,18.0,16.0,-100.00,NE,50,9.0,14.0,89,-99.99,,,-99.99,,2013-01-15 11:52:00,
2013-01-15 07:03:00,18.0,16.0,-100.00,NE,45,9.0,14.0,89,-99.99,,,-99.99,,2013-01-15 12:03:00,
2013-01-15 07:12:00,18.0,16.0,-100.00,NE,45,9.0,12.0,89,-99.99,,,-99.99,,2013-01-15 12:12:00,
2013-01-15 07:22:00,18.0,16.0,-100.00,NE,45,9.0,14.0,89,-99.99,,,-99.99,,2013-01-15 12:22:00,
2013-01-15 07:33:00,18.0,15.0,-100.00,NE,50,9.0,14.0,89,-99.99,,,-99.99,,2013-01-15 12:33:00,
2013-01-15 07:43:00,18.0,15.0,-100.00,NE,45,7.0,14.0,89,-99.99,,,-99.99,,2013-01-15 12:43:00,
2013-01-15 07:53:00,18.0,15.0,-100.00,NE,45,9.0,14.0,89,-99.99,,,-99.99,,2013-01-15 12:53:00,
2013-01-15 08:03:00,18.0,15.0,-100.00,NE,45,9.0,14.0,89,-99.99,,,-99.99,,2013-01-15 13:03:00,
2013-01-15 08:12:00,18.0,15.0,-100.00,ENE,60,8.0,14.0,89,-99.99,,,-99.99,,2013-01-15 13:12:00,
2013-01-15 08:23:00,18.0,15.0,-100.00,NE,45,9.0,13.0,89,-99.99,,,-99.99,,2013-01-15 13:23:00,
2013-01-15 08:33:00,18.0,16.0,-100.00,ENE,60,9.0,14.0,89,-99.99,,,-99.99,,2013-01-15 13:33:00,
2013-01-15 08:43:00,18.0,16.0,-100.00,ENE,60,10.0,14.0,89,-99.99,,,-99.99,,2013-01-15 13:43:00,
2013-01-15 08:53:00,18.0,16.0,-100.00,ENE,65,10.0,14.0,89,-99.99,,,-99.99,,2013-01-15 13:53:00,
2013-01-15 09:03:00,19.0,16.0,-100.00,ENE,70,9.0,16.0,89,-99.99,,,-99.99,,2013-01-15 14:03:00,
2013-01-15 09:12:00,19.0,16.0,-100.00,ENE,70,9.0,17.0,89,-99.99,,,-99.99,,2013-01-15 14:12:00,
2013-01-15 09:23:00,19.0,17.0,-100.00,ENE,75,12.0,18.0,89,-99.99,,,-99.99,,2013-01-15 14:23:00,
2013-01-15 09:33:00,20.0,17.0,-100.00,ENE,70,12.0,18.0,88,-99.99,,,-99.99,,2013-01-15 14:33:00,
2013-01-15 09:43:00,20.0,17.0,-100.00,ENE,70,12.0,18.0,87,-99.99,,,-99.99,,2013-01-15 14:43:00,
2013-01-15 09:53:00,20.0,16.0,-100.00,East,85,12.0,20.0,86,-99.99,,,-99.99,,2013-01-15 14:53:00,
2013-01-15 10:03:00,21.0,17.0,-100.00,ENE,75,11.0,17.0,86,-99.99,,,-99.99,,2013-01-15 15:03:00,
2013-01-15 10:12:00,21.0,17.0,-100.00,East,80,12.0,19.0,84,-99.99,,,-99.99,,2013-01-15 15:12:00,
2013-01-15 10:23:00,22.0,17.0,-100.00,ENE,65,12.0,17.0,83,-99.99,,,-99.99,,2013-01-15 15:23:00,
2013-01-15 10:33:00,22.0,17.0,-100.00,ENE,65,12.0,17.0,81,-99.99,,,-99.99,,2013-01-15 15:33:00,
2013-01-15 10:43:00,23.0,18.0,-100.00,ENE,65,9.0,15.0,81,-99.99,,,-99.99,,2013-01-15 15:43:00,
2013-01-15 10:53:00,23.0,18.0,-100.00,ENE,70,10.0,16.0,79,-99.99,,,-99.99,,2013-01-15 15:53:00,
2013-01-15 11:03:00,23.0,17.0,-100.00,East,80,9.0,16.0,77,-99.99,,,-99.99,,2013-01-15 16:03:00,
2013-01-15 11:12:00,23.0,17.0,-100.00,ENE,65,11.0,14.0,76,-99.99,,,-99.99,,2013-01-15 16:12:00,
2013-01-15 11:23:00,24.0,18.0,-100.00,ENE,60,7.0,14.0,76,-99.99,,,-99.99,,2013-01-15 16:23:00,
2013-01-15 11:33:00,25.0,17.0,-100.00,ENE,70,11.0,16.0,74,-99.99,,,-99.99,,2013-01-15 16:33:00,
2013-01-15 11:43:00,25.0,17.0,-100.00,ENE,60,10.0,14.0,72,-99.99,,,-99.99,,2013-01-15 16:43:00,
2013-01-15 11:53:00,25.0,17.0,-100.00,East,85,12.0,15.0,70,-99.99,,,-99.99,,2013-01-15 16:53:00,
2013-01-15 12:03:00,25.0,17.0,-100.00,East,90,11.0,17.0,70,-99.99,,,-99.99,,2013-01-15 17:03:00,
2013-01-15 12:12:00,25.0,17.0,-100.00,ENE,60,10.0,14.0,72,-99.99,,,-99.99,,2013-01-15 17:12:00,
2013-01-15 12:22:00,25.0,17.0,-100.00,East,85,9.0,16.0,73,-99.99,,,-99.99,,2013-01-15 17:22:00,
2013-01-15 12:33:00,25.0,17.0,-100.00,East,90,10.0,14.0,72,-99.99,,,-99.99,,2013-01-15 17:33:00,
2013-01-15 12:42:00,27.0,18.0,-100.00,East,90,10.0,14.0,70,-99.99,,,-99.99,,2013-01-15 17:42:00,
2013-01-15 12:53:00,26.0,17.0,-100.00,East,100,11.0,14.0,68,-99.99,,,-99.99,,2013-01-15 17:53:00,
2013-01-15 13:03:00,26.0,17.0,-100.00,East,100,11.0,14.0,68,-99.99,,,-99.99,,2013-01-15 18:03:00,
2013-01-15 13:13:00,27.0,18.0,-100.00,East,90,9.0,14.0,67,-99.99,,,-99.99,,2013-01-15 18:13:00,
2013-01-15 13:23:00,27.0,18.0,-100.00,ENE,60,7.0,12.0,67,-99.99,,,-99.99,,2013-01-15 18:23:00,
2013-01-15 13:33:00,28.0,18.0,-100.00,East,80,7.0,11.0,66,-99.99,,,-99.99,,2013-01-15 18:33:00,
2013-01-15 13:43:00,29.0,18.0,-100.00,NE,55,7.0,12.0,65,-99.99,,,-99.99,,2013-01-15 18:43:00,
2013-01-15 13:53:00,28.0,17.0,-100.00,NE,50,7.0,15.0,64,-99.99,,,-99.99,,2013-01-15 18:53:00,
2013-01-15 14:03:00,29.0,18.0,-100.00,NE,55,7.0,12.0,64,-99.99,,,-99.99,,2013-01-15 19:03:00,
2013-01-15 14:12:00,28.0,18.0,-100.00,East,80,11.0,15.0,65,-99.99,,,-99.99,,2013-01-15 19:12:00,
2013-01-15 14:23:00,27.0,17.0,-100.00,ENE,75,8.0,17.0,66,-99.99,,,-99.99,,2013-01-15 19:23:00,
2013-01-15 14:33:00,27.0,17.0,-100.00,East,80,9.0,14.0,67,-99.99,,,-99.99,,2013-01-15 19:33:00,
2013-01-15 14:42:00,27.0,18.0,-100.00,East,85,8.0,13.0,67,-99.99,,,-99.99,,2013-01-15 19:42:00,
2013-01-15 14:53:00,27.0,17.0,-100.00,ENE,75,7.0,12.0,67,-99.99,,,-99.99,,2013-01-15 19:53:00,
2013-01-15 15:03:00,27.0,18.0,-100.00,East,80,7.0,11.0,67,-99.99,,,-99.99,,2013-01-15 20:03:00,
2013-01-15 15:12:00,27.0,17.0,-100.00,ENE,70,7.0,11.0,67,-99.99,,,-99.99,,2013-01-15 20:12:00,
2013-01-15 15:23:00,27.0,18.0,-100.00,ENE,65,7.0,11.0,68,-99.99,,,-99.99,,2013-01-15 20:23:00,
2013-01-15 15:33:00,27.0,17.0,-100.00,ENE,65,9.0,12.0,68,-99.99,,,-99.99,,2013-01-15 20:33:00,
2013-01-15 15:43:00,26.0,18.0,-100.00,ENE,60,9.0,12.0,70,-99.99,,,-99.99,,2013-01-15 20:43:00,
2013-01-15 15:52:00,27.0,18.0,-100.00,ENE,75,6.0,10.0,70,-99.99,,,-99.99,,2013-01-15 20:52:00,
2013-01-15 16:03:00,27.0,18.0,-100.00,NE,50,6.0,9.0,71,-99.99,,,-99.99,,2013-01-15 21:03:00,
2013-01-15 16:13:00,27.0,18.0,-100.00,ENE,65,7.0,10.0,71,-99.99,,,-99.99,,2013-01-15 21:13:00,
2013-01-15 16:23:00,26.0,18.0,-100.00,East,80,8.0,11.0,71,-99.99,,,-99.99,,2013-01-15 21:23:00,
2013-01-15 16:33:00,26.0,18.0,-100.00,ENE,75,8.0,11.0,71,-99.99,,,-99.99,,2013-01-15 21:33:00,
2013-01-15 16:43:00,26.0,18.0,-100.00,ENE,65,9.0,12.0,71,-99.99,,,-99.99,,2013-01-15 21:43:00,
2013-01-15 16:52:00,26.0,18.0,-100.00,East,85,7.0,11.0,71,-99.99,,,-99.99,,2013-01-15 21:52:00,
2013-01-15 17:03:00,26.0,18.0,-100.00,ENE,65,9.0,11.0,71,-99.99,,,-99.99,,2013-01-15 22:03:00,
2013-01-15 17:12:00,26.0,18.0,-100.00,East,80,9.0,12.0,72,-99.99,,,-99.99,,2013-01-15 22:12:00,
2013-01-15 17:23:00,26.0,19.0,-100.00,NE,55,8.0,12.0,73,-99.99,,,-99.99,,2013-01-15 22:23:00,
2013-01-15 17:33:00,26.0,19.0,-100.00,ENE,70,9.0,12.0,74,-99.99,,,-99.99,,2013-01-15 22:33:00,
2013-01-15 17:43:00,26.0,19.0,-100.00,ENE,70,10.0,14.0,74,-99.99,,,-99.99,,2013-01-15 22:43:00,
2013-01-15 17:52:00,26.0,19.0,-100.00,ENE,65,9.0,15.0,74,-99.99,,,-99.99,,2013-01-15 22:52:00,
2013-01-15 18:03:00,26.0,19.0,-100.00,East,80,7.0,12.0,75,-99.99,,,-99.99,,2013-01-15 23:03:00,
2013-01-15 18:13:00,26.0,19.0,-100.00,ENE,70,9.0,12.0,75,-99.99,,,-99.99,,2013-01-15 23:13:00,
2013-01-15 18:22:00,26.0,20.0,-100.00,ENE,70,9.0,12.0,76,-99.99,,,-99.99,,2013-01-15 23:22:00,
2013-01-15 18:33:00,26.0,20.0,-100.00,ENE,60,9.0,11.0,77,-99.99,,,-99.99,,2013-01-15 23:33:00,
2013-01-15 18:43:00,26.0,20.0,-100.00,NE,55,9.0,13.0,77,-99.99,,,-99.99,,2013-01-15 23:43:00,
2013-01-15 18:53:00,26.0,20.0,-100.00,East,85,7.0,11.0,78,-99.99,,,-99.99,,2013-01-15 23:53:00,
2013-01-15 19:03:00,26.0,20.0,-100.00,East,80,9.0,12.0,78,-99.99,,,-99.99,,2013-01-16 00:03:00,
2013-01-15 19:12:00,26.0,20.0,-100.00,East,90,9.0,12.0,79,-99.99,,,-99.99,,2013-01-16 00:12:00,
2013-01-15 19:22:00,26.0,20.0,-100.00,East,95,10.0,14.0,79,-99.99,,,-99.99,,2013-01-16 00:22:00,
2013-01-15 19:33:00,26.0,20.0,-100.00,East,85,9.0,14.0,79,-99.99,,,-99.99,,2013-01-16 00:33:00,
2013-01-15 19:43:00,26.0,20.0,-100.00,ENE,70,9.0,13.0,79,-99.99,,,-99.99,,2013-01-16 00:43:00,
2013-01-15 19:52:00,26.0,20.0,-100.00,East,80,7.0,13.0,79,-99.99,,,-99.99,,2013-01-16 00:52:00,
2013-01-15 20:03:00,26.0,21.0,-100.00,ENE,65,9.0,12.0,80,-99.99,,,-99.99,,2013-01-16 01:03:00,
2013-01-15 20:12:00,26.0,21.0,-100.00,NE,50,7.0,10.0,80,-99.99,,,-99.99,,2013-01-16 01:12:00,
2013-01-15 20:22:00,26.0,21.0,-100.00,NE,45,6.0,9.0,80,-99.99,,,-99.99,,2013-01-16 01:22:00,
2013-01-15 20:33:00,26.0,21.0,-100.00,NE,50,4.0,9.0,80,-99.99,,,-99.99,,2013-01-16 01:33:00,
2013-01-15 20:42:00,26.0,21.0,-100.00,NE,55,7.0,10.0,80,-99.99,,,-99.99,,2013-01-16 01:42:00,
2013-01-15 20:52:00,26.0,21.0,-100.00,NE,55,5.0,9.0,80,-99.99,,,-99.99,,2013-01-16 01:52:00,
2013-01-15 21:03:00,26.0,21.0,-100.00,ENE,65,7.0,9.0,80,-99.99,,,-99.99,,2013-01-16 02:03:00,
2013-01-15 21:12:00,26.0,21.0,-100.00,ENE,60,8.0,11.0,81,-99.99,,,-99.99,,2013-01-16 02:12:00,
2013-01-15 21:22:00,26.0,21.0,-100.00,ENE,65,6.0,9.0,81,-99.99,,,-99.99,,2013-01-16 02:22:00,
2013-01-15 21:33:00,26.0,21.0,-100.00,NE,45,6.0,10.0,81,-99.99,,,-99.99,,2013-01-16 02:33:00,
2013-01-15 21:42:00,26.0,21.0,-100.00,NE,55,7.0,12.0,81,-99.99,,,-99.99,,2013-01-16 02:42:00,
2013-01-15 21:52:00,26.0,21.0,-100.00,ENE,65,7.0,12.0,82,-99.99,,,-99.99,,2013-01-16 02:52:00,
2013-01-15 22:03:00,26.0,21.0,-100.00,NE,55,7.0,11.0,82,-99.99,,,-99.99,,2013-01-16 03:03:00,
2013-01-15 22:12:00,26.0,21.0,-100.00,ENE,70,6.0,11.0,82,-99.99,,,-99.99,,2013-01-16 03:12:00,
2013-01-15 22:22:00,26.0,21.0,-100.00,ENE,65,7.0,9.0,82,-99.99,,,-99.99,,2013-01-16 03:22:00,
2013-01-15 22:33:00,26.0,21.0,-100.00,ENE,65,8.0,11.0,82,-99.99,,,-99.99,,2013-01-16 03:33:00,
2013-01-15 22:43:00,26.0,21.0,-100.00,ENE,65,8.0,12.0,82,-99.99,,,-99.99,,2013-01-16 03:43:00,
2013-01-15 22:52:00,26.0,22.0,-100.00,NE,55,6.0,11.0,83,-99.99,,,-99.99,,2013-01-16 03:52:00,
2013-01-15 23:02:00,26.0,22.0,-100.00,NE,40,6.0,9.0,83,-99.99,,,-99.99,,2013-01-16 04:02:00,
2013-01-15 23:12:00,26.0,22.0,-100.00,NE,50,5.0,7.0,83,-99.99,,,-99.99,,2013-01-16 04:12:00,
2013-01-15 23:22:00,26.0,22.0,-100.00,NE,55,5.0,10.0,83,-99.99,,,-99.99,,2013-01-16 04:22:00,
2013-01-15 23:33:00,26.0,22.0,-100.00,NE,40,6.0,9.0,84,-99.99,,,-99.99,,2013-01-16 04:33:00,
2013-01-15 23:42:00,26.0,22.0,-100.00,ENE,65,6.0,9.0,85,-99.99,,,-99.99,,2013-01-16 04:42:00,
2013-01-15 23:52:00,26.0,22.0,-100.00,ENE,60,7.0,11.0,85,-99.99,,,-99.99,,2013-01-16 04:52:00,